Regional Weather Roundup
Issued by NWS

Home | Current Version | Previous Version | Graphics & Text | Print | Product List | Glossary On
Versions: 1 2 3 4 5 6 7 8 9 10 11 12 13 14 15 16 17 18 19 20 21 22 23 24 25 26 27 28 29 30 31 32 33 34 35 36 37 38 39 40 41 42 43 44 45 46
000
ASUS45 KSLC 211510
RWRUT

UTAH REGIONAL WEATHER ROUNDUP
NATIONAL WEATHER SERVICE SALT LAKE CITY UT
900 AM MDT TUE OCT 21 2014

UTZ001>011-023>025-211600-

NORTHERN UTAH

CITY           SKY/WX    TMP DP  RH WIND       PRES   REMARKS
BRIGHAM CITY   PTSUNNY   61  42  49 SW15      29.90R
DUGWAY         MOSUNNY   63  41  45 S12       29.93R
HILL AFB       CLOUDY    62  40  44 S18       29.91R
LOGAN          MOSUNNY   58  46  64 CALM      29.87R
OGDEN          PTSUNNY   64  40  41 S20G25    29.89R
PROVO AIRPORT  PTSUNNY   54  39  58 E5        29.96R
SALT LAKE CITY MOSUNNY   65  39  38 S15G25    29.89S
VERNAL         MOSUNNY   47  39  74 CALM      30.04S
WENDOVER       SUNNY     57  34  41 N12       29.95R
HEBER CITY     CLOUDY    57  37  47 S7        29.99S
WEST JORDAN    SUNNY     63  45  51 SE16      29.93S

$$

UTZ012>022-026-027-211600-

SOUTHERN/CENTRAL UTAH

CITY           SKY/WX    TMP DP  RH WIND       PRES   REMARKS
BLANDING       MOSUNNY   52  42  70 CALM      30.22R
BRYCE CANYON   CLOUDY    41  37  86 SW5       30.17R
CEDAR CITY     SUNNY     53  40  61 S9        30.05R
DELTA          SUNNY     57  39  50 S13       29.98R
HANKSVILLE       N/A     50  37  62 CALM      30.04S
MILFORD        SUNNY     57  40  52 SW14      30.01R
MOAB/CYNLANDS  PTSUNNY   61  42  49 E6        30.01R
PRICE          CLOUDY    51  38  60 SE6       30.06R
ST GEORGE      PTSUNNY   64  39  39 SE8       29.97R

$$

REGIONAL REPORTS     COLORADO/ARIZONA

CITY           SKY/WX    TMP DP  RH WIND       PRES   REMARKS
CRAIG, CO      CLOUDY    42  38  85 CALM      30.11S
GRAND JUNCTION PTSUNNY   56  38  50 E14       30.06R
RIFLE          CLOUDY    46  39  76 CALM      30.12R
MONTROSE       CLOUDY    52  40  63 SE7       30.14R
CORTEZ         SUNNY     57  43  59 CALM      30.15R
PAGE, AZ       NOT AVBL
GRAND CANYON   MOSUNNY   44  34  67 CALM      30.17R
KINGMAN        SUNNY     63  44  50 SE12      30.00R
FLAGSTAFF      SUNNY     45  40  82 CALM      30.20R

$$

REGIONAL REPORTS    NEVADA/IDAHO/WYOMING

CITY           SKY/WX    TMP DP  RH WIND       PRES   REMARKS
LAS VEGAS, NV  MOSUNNY   71  37  28 S12       29.85R
ELY            SUNNY     49  31  49 NW9       30.04R
ELKO           PTCLDY    42  31  64 W7        30.07R
POCATELLO, ID  PTSUNNY   44  38  79 SW25G35   30.02R
BURLEY         LGT RAIN  41  38  89 S10       30.01R
EVANSTON, WY   MOSUNNY   49  37  63 SW12      30.02R
ROCK SPRINGS   MOSUNNY   52  36  54 S9        30.03S
KEMMERER       PTSUNNY   48  37  66 S7        30.02S

$$



USA.gov is the U.S. government's official web portal to all federal, state and local government web resources and services.